Regional Weather Roundup
Issued by NWS

Home | Current Version | Previous Version | Text Only | Print | Product List | Glossary Off
Versions: 1 2 3 4 5 6 7 8 9 10 11 12 13 14 15 16 17 18 19 20 21 22 23 24 25 26 27 28 29 30 31 32 33 34 35 36 37 38 39 40 41 42 43 44 45 46 47 48 49 50

000
ASUS43 KLOT 191003
RWRIL

ILLINOIS REGIONAL WEATHER ROUNDUP
NATIONAL WEATHER SERVICE CHICAGO/ROMEOVILLE IL
400 AM CST MON FEB 19 2018

NOTE: "FAIR" INDICATES FEW OR NO CLOUDS BELOW 12,000 FEET WITH NO
SIGNIFICANT WEATHER AND/OR OBSTRUCTIONS TO VISIBILITY.

* THESE STATIONS ARE NOT UNDER NWS QUALITY CONTROL. THEY ALSO MAY NOT
  REPORT WEATHER SUCH AS PRECIPITATION OR FOG.

ILZ001-002-007-009-015-016-024-191100-
NORTHWEST ILLINOIS

CITY           SKY/WX    TMP DP  RH WIND       PRES   REMARKS
MOLINE         FAIR      39  35  86 E6        29.77F WCI  35
STERLING*      FAIR      38  35  89 SE3       29.81F
SAVANNA*       FAIR      35  33  90 SE6       29.80S WCI  30
$$

ILZ003-004-008-010-011-017-018-191100-
NORTH CENTRAL ILLINOIS

CITY           SKY/WX    TMP DP  RH WIND       PRES   REMARKS
ROCKFORD       CLOUDY    36  33  89 S5        29.84S WCI  32
FREEPORT*      CLOUDY    36  34  90 S9        29.82S WCI  29
ROCHELLE*      CLOUDY    34  33  97 SE5       29.83F WCI  30
DE KALB*       CLOUDY    35  34  97 S10       29.84S FOG     WCI  27
PERU*          FAIR      37  35  92 S9        29.83F WCI  30
$$

ILZ005-006-012>014-019>023-191100-
NORTHEAST ILLINOIS

CITY           SKY/WX    TMP DP  RH WIND       PRES   REMARKS
CHICAGO-OHARE  CLOUDY    39  36  89 S7        29.85S WCI  34
CHICAGO-MIDWAY DRIZZLE   39  38  96 S7        29.86F FOG     WCI  34
AURORA         CLOUDY    36  35  96 SE5       29.85S FOG     WCI  32
LANSING*       DRIZZLE   37  37 100 S7        29.90R WCI  31
JOLIET*        CLOUDY    40  40 100 S3        29.87S FOG
WAUKEGAN       CLOUDY    40  35  83 SW13      29.84R
DUPAGE AIRPORT CLOUDY    36  36 100 S8        29.84F FOG     WCI  30
KANKAKEE*      CLOUDY    37  37  98 CALM      29.90S FOG
WHEELING       CLOUDY    40  37  89 S9        29.87S
MORRIS*        FOG       37  36  97 S6        29.86S VSB 1/2 WCI  32
ROMEOVILLE*    FOG       35  35  99 S6        29.86F VSB 1/2 WCI  30
NORTHERLY ISL    N/A     39  36  89 SW8         N/A  WCI  33
$$

LMZ740>746-191100-
SOUTHERN LAKE MICHIGAN

STATION/POSITION SKY/WX   TEMP    WIND        PRES    VSBY  WAVE
                          AIR SEA DIR/SP/G                  HT/PER
                          (F)     (DEG/KT/KT) (MB)    (MI)  (FT/S)
HARRISON CRIB              40     200/ 17/ 18   N/A
BURNHAM HARBOR             39     200/  7/ 13   N/A
CALUMET HARBOR             39     180/  7/ 10 1011.3R
BURNS HARBOR               40     180/ 12/ 19 1012.5S
MICHIGAN CITY              40     160/ 13/ 17   N/A
$$

ILZ025>027-034>036-040-047-049-050-058-095>099-191100-
WEST-CENTRAL ILLINOIS

CITY           SKY/WX    TMP DP  RH WIND       PRES   REMARKS
QUINCY         TSTM      46  45  96 E8        29.78F FOG
GALESBURG*     FAIR      41  40  97 S6        29.82R
MACOMB*        RAIN      42  40  95 S9        29.85R
JACKSONVILLE*  CLOUDY    48  46  93 S13       29.83F FOG
PITTSFIELD*    DRIZZLE   49  48  97 SE10      29.80F
$$

ILZ028>032-037-038-041>044-048-051>054-059>061-191100-
CENTRAL ILLINOIS

CITY           SKY/WX    TMP DP  RH WIND       PRES   REMARKS
BLOOMINGTON    CLOUDY    45  44  97 SW12      29.87R FOG
DECATUR        CLOUDY    48  48 100 S14       29.89S
PEORIA         CLOUDY    44  40  85 S8        29.85S
LACON*         FAIR      40  38  93 S7        29.83S
LINCOLN*       DRIZZLE   48  48 100 S9        29.86S
SPRINGFIELD    TSTM      50  48  93 S14       29.86R FOG
TAYLORVILLE    CLOUDY    48  47  97 S15G21    29.87F
$$

ILZ033-039-045-046-055>057-062-063-191100-
EAST-CENTRAL ILLINOIS

CITY           SKY/WX    TMP DP  RH WIND       PRES   REMARKS
CHAMPAIGN      CLOUDY    45  43  93 S17       29.90R
DANVILLE*      HVY RAIN  46  43  89 S15G24    29.90R
RANTOUL*       DRIZZLE   47  46  96 S8        29.91R
MATTOON        LGT RAIN  48  45  89 S9        29.91S
PARIS*         LGT RAIN  47  46  93 SW9       29.95R
$$

ILZ079-100>102-191100-
SOUTHWEST ILLINOIS

CITY           SKY/WX    TMP DP  RH WIND       PRES   REMARKS
ALTON          CLOUDY    53  52  95 S14       29.87F
BELLEVILLE     CLOUDY    54  51  89 SW12      29.89S
CAHOKIA*       CLOUDY    56  51  84 S10G23    29.87F
SPARTA*        LGT RAIN  52  52 100 S15G22    29.94S
$$

ILZ064>066-069>071-074>076-080>082-084>086-088>090-092>094-191100-
SOUTH-CENTRAL ILLINOIS

CITY           SKY/WX    TMP DP  RH WIND       PRES   REMARKS
CARBONDALE     CLOUDY    56  55  97 S18G32    29.97S
CAIRO*         CLOUDY    54  54  99 S9        30.04S
EFFINGHAM*     CLOUDY    52  50  92 S10G17    29.94R
MARION         CLOUDY    54  54  98 S15G24    30.00R FOG
MT. VERNON     CLOUDY    55  53  93 SW20      29.95S
CENTRALIA*     LGT RAIN  55  54  97 S22       29.92F
SALEM*         LGT RAIN  56  53  90 S17G23    29.93S
METROPOLIS*    CLOUDY    57  55  92 S7        30.05S
$$

ILZ067-068-072-073-078-083-087-091-191100-
SOUTHEAST ILLINOIS

CITY           SKY/WX    TMP DP  RH WIND       PRES   REMARKS
LAWRENCEVILLE  CLOUDY    53  48  83 S20       29.98S
FLORA*         CLOUDY    55  53  93 S17       29.95S
FAIRFIELD*     CLOUDY    55  53  95 S10       29.96S
HARRISBURG*    CLOUDY    58  56  95 S17       30.00F
ROBINSON*      CLOUDY    51  48  88 S13       29.96S
CARMI*         CLOUDY    55  53  94 S16       30.00S
$$

ABBREVIATIONS USED IN REMARKS
   TC - TEMPERATURE IN CELSIUS
  WCI - WIND CHILL INDEX
   HX - HEAT INDEX
  VSB - VISIBILITY
$$





USA.gov is the U.S. government's official web portal to all federal, state and local government web resources and services.